Saipan, MP

7:20 AM ChST on February 26, 2017 (GMT +1000)
Saipan International

Weather History for PGSN - June, 2013

Change the Weather History Date:

Thursday, June 13, 2013

  Actual Average Record
Temperature  
Mean Temperature 80 °F -  
Max Temperature 84 °F 85 °F 90 °F (2014)
Min Temperature 75 °F 76 °F 75 °F (2013)
Cooling Degree Days 14    
Growing Degree Days 30 (Base 50)    
Moisture  
Dew Point 75 °F    
Average Humidity 88    
Maximum Humidity 100    
Minimum Humidity 76    
Precipitation  
Precipitation 1.06 in - - ()
Sea Level Pressure  
Sea Level Pressure 29.88 in    
Wind  
Wind Speed 12 mph (East)    
Max Wind Speed 21 mph    
Max Gust Speed 29 mph    
Visibility 9 miles    
Events Rain    
Averages and records for this station are not official NWS values.
T = Trace of Precipitation, MM = Missing Value Source: NWS Daily Summary

Daily Weather History Graph

Daily Weather History Graph

Search for Another Location

Airport or City:

Trip Planner

Search our weather history database for the weather conditions in past years. The results will help you decide how hot, cold, wet, or windy it might be!

Date:

Astronomy

Jun. 13, 2013 Rise Set
Actual Time 5:46 AM ChST 6:47 PM ChST
Civil Twilight 5:23 AM ChST 7:11 PM ChST
Nautical Twilight 4:55 AM ChST 7:39 PM ChST
Astronomical Twilight 4:26 AM ChST 8:07 PM ChST
Moon 9:18 AM ChST (6/13) 10:06 PM ChST (6/13)
Length of Visible Light 13h 48m
Length of Day
13h 00m
Waxing Crescent, 17% of the Moon is Illuminated
Jun 13
Waxing Crescent
Jun 17
First Quarter
Jun 23
Full
Jun 30
Last Quarter
Jul 8
New

Hourly Weather History & Observations

Time (ChST) Temp. Heat Index Dew Point Humidity Pressure Visibility Wind Dir Wind Speed Gust Speed Precip Events Conditions
12:54 AM 79.0 °F - 73.9 °F 84% 29.89 in 10.0 mi East 9.2 mph - N/A   Scattered Clouds
1:54 AM 80.1 °F 83.8 °F 72.0 °F 76% 29.88 in 10.0 mi East 10.4 mph - N/A   Scattered Clouds
2:54 AM 79.0 °F - 71.1 °F 77% 29.88 in 10.0 mi East 11.5 mph - N/A   Scattered Clouds
3:54 AM 79.0 °F - 72.0 °F 79% 29.87 in 10.0 mi East 9.2 mph - N/A   Partly Cloudy
4:54 AM 79.0 °F - 73.0 °F 82% 29.87 in 10.0 mi ENE 10.4 mph - N/A   Scattered Clouds
5:54 AM 79.0 °F - 73.9 °F 84% 29.87 in 10.0 mi ENE 13.8 mph - N/A   Scattered Clouds
6:54 AM 80.1 °F 85.4 °F 75.9 °F 87% 29.89 in 10.0 mi ENE 12.7 mph - N/A   Overcast
7:01 AM 78.8 °F - 75.2 °F 89% 29.84 in 10.0 mi ESE 19.6 mph 27.6 mph N/A   Overcast
7:04 AM 77.0 °F - 73.4 °F 89% 29.84 in 1.5 mi SE 19.6 mph 27.6 mph N/A   Overcast
7:07 AM 75.2 °F - 73.4 °F 94% 29.83 in 4.0 mi SE 17.3 mph 27.6 mph 0.07 in Rain Heavy Rain
7:54 AM 75.9 °F - 75.9 °F 100% 29.91 in 4.0 mi East 10.4 mph - 0.83 in   Overcast
8:01 AM 75.2 °F - 75.2 °F 100% 29.85 in 10.0 mi ENE 11.5 mph - 0.01 in   Overcast
8:08 AM 75.2 °F - 75.2 °F 100% 29.84 in 3.0 mi ENE 11.5 mph - 0.01 in Rain Light Rain
8:54 AM 78.1 °F - 77.0 °F 96% 29.90 in 9.0 mi ENE 5.8 mph - 0.01 in Rain Light Rain
9:54 AM 82.0 °F 91.0 °F 78.1 °F 88% 29.91 in 10.0 mi East 15.0 mph - 0.00 in   Mostly Cloudy
10:54 AM 84.0 °F 93.7 °F 77.0 °F 79% 29.90 in 10.0 mi East 20.7 mph 25.3 mph N/A   Scattered Clouds
11:54 AM 81.0 °F 87.3 °F 75.9 °F 85% 29.90 in 6.0 mi East 13.8 mph 25.3 mph 0.00 in Rain Light Rain
12:16 PM 80.6 °F 86.2 °F 75.2 °F 84% 29.83 in 1.8 mi East 18.4 mph 28.8 mph 0.00 in Rain Light Rain
12:23 PM 78.8 °F - 75.2 °F 89% 29.83 in 8.0 mi East 13.8 mph 27.6 mph 0.08 in Rain Light Rain
12:54 PM 79.0 °F - 77.0 °F 94% 29.89 in 10.0 mi East 11.5 mph - 0.08 in Rain Light Rain
1:54 PM 81.0 °F 87.3 °F 75.9 °F 85% 29.88 in 10.0 mi East 15.0 mph 21.9 mph 0.00 in Rain Light Rain
2:54 PM 79.0 °F - 77.0 °F 94% 29.87 in 10.0 mi East 10.4 mph - 0.14 in   Scattered Clouds
3:54 PM 79.0 °F - 77.0 °F 94% 29.86 in 10.0 mi ESE 15.0 mph - N/A   Partly Cloudy
4:54 PM 80.1 °F 85.8 °F 77.0 °F 90% 29.86 in 10.0 mi East 10.4 mph - N/A   Clear
5:54 PM 79.0 °F - 75.9 °F 90% 29.86 in 10.0 mi East 10.4 mph - N/A   Clear
6:54 PM 79.0 °F - 75.9 °F 90% 29.88 in 10.0 mi East 10.4 mph - N/A   Scattered Clouds
7:54 PM 80.1 °F 85.4 °F 75.9 °F 87% 29.90 in 10.0 mi East 12.7 mph - N/A   Partly Cloudy
8:54 PM 80.1 °F 85.1 °F 75.0 °F 85% 29.91 in 10.0 mi East 11.5 mph - N/A   Partly Cloudy
9:54 PM 80.1 °F 85.4 °F 75.9 °F 87% 29.91 in 10.0 mi East 10.4 mph - N/A   Scattered Clouds
10:54 PM 80.1 °F 85.4 °F 75.9 °F 87% 29.91 in 10.0 mi East 9.2 mph - N/A   Scattered Clouds
11:54 PM 79.0 °F - 77.0 °F 94% 29.90 in 10.0 mi East 9.2 mph - N/A   Partly Cloudy